Weather in Novo-Georgiyevskoye

Russia / Republic of North Ossetia — Alania     43°45′45″N   44°42′11″E
temp.,
°C
wind,
m/s
gust,
m/s
humid.,
%
clouds,
%
prec.,
mm/h
press.,
hPa
HPBL,
m
17 june, thu
thu1700:00+20e337092 0.0 100544
03:00+19e12804 0.0 100311
06:00+20ssw00780 0.0 100390
09:00+25wnw56640 0.0 1005664
12:00+28wnw895962 0.0 10071453
15:00+28wnw911562 0.0 10081679
18:00+24wnw811713 0.0 1012953
21:00+21wnw5108122 0.0 1015458
18 june, fri
fri1800:00+20w4972100 0.0 1016574
03:00+20w4971100 0.0 1017477
06:00+20wnw3777100 0.0 1018340
09:00+22wnw465949 0.0 1018687
12:00+26nw44460 0.0 10171341
15:00+28nnw33430 0.0 10161592
18:00+27wsw23520 0.0 1016170
21:00+22wsw33600 0.0 101734
19 june, sat
sat1900:00+20w22670 0.0 101625
03:00+18w22730 0.0 101624
06:00+20w22730 0.0 1016100
09:00+26ne236196 0.0 1015707
12:00+31ese4644100 0.0 10131756
15:00+34e3730100 0.0 10112409
18:00+29e8153598 0.0 1011650
21:00+24ene612525 0.0 1013446
20 june, sun
sun2000:00+21ene35720 0.0 101382
03:00+19ene1179100 0.0 101212
06:00+20wsw117945 0.0 1012110
09:00+26wnw11631 0.0 1011549
12:00+31se23430 0.0 10101118
15:00+35ese14330 0.0 10091592
18:00+29e711440 0.0 1010552
21:00+24e511380 0.0 1011318
21 june, mon
mon2100:00+21e33410 0.0 101139
03:00+20ene11450 0.0 101113
06:00+20wsw11580 0.0 101177
09:00+26ne12470 0.0 1010507
12:00+33ese23350 0.0 10091096
15:00+36e24250 0.0 10071765
18:00+30e510320 0.0 1009352
21:00+23ene35310 0.0 101166